Regional Weather Roundup
Issued by NWS

Home | Current Version | Previous Version | Text Only | Print | Product List | Glossary Off
Versions: 1 2 3 4 5 6 7 8 9 10 11 12 13 14 15 16 17 18 19 20 21 22 23 24 25 26 27 28 29 30 31 32 33 34 35 36 37 38 39 40 41 42 43 44 45 46 47 48 49 50

000
ASUS43 KMPX 221210
RWRMN
WEATHER ROUNDUP FOR MINNESOTA
NATIONAL WEATHER SERVICE TWIN CITIES/CHANHASSEN MN
700 AM CDT TUE JUL 22 2014


NOTE: "FAIR" INDICATES FEW OR NO CLOUDS BELOW 12,000 FEET WITH NO
SIGNIFICANT WEATHER AND/OR OBSTRUCTIONS TO VISIBILITY. N/A MEANS
CURRENT SKY AND/OR WEATHER CONDITIONS ARE NOT AVAILABLE.

MNZ060>063-068>070-221300-
   Twin Cities Metro

CITY           SKY/WX    TMP DP  RH WIND       PRES   REMARKS
TWIN CITIES    MOSUNNY   75  63  66 NW15G26   29.89R
6HR MIN TEMP:  75; 6HR MAX TEMP:  82;

ST PAUL        SUNNY     76  63  64 NW20G28   29.88R
CRYSTAL        SUNNY     74  63  68 NW16      29.89R
BLAINE         SUNNY     73  66  78 W14G21    29.90R
LAKEVILLE      SUNNY     73  63  68 NW12      29.89R
EDEN PRAIRIE   MOSUNNY   74  64  71 NW18G25   29.89R
6HR MIN TEMP:  74; 6HR MAX TEMP:  82;

SOUTH ST PAUL  SUNNY     78  62  57 NW16G23   29.87R
LAKE ELMO      FAIR      75  64  69 W12G20    29.88R
$$
MNZ001>005-007-008-013>017-022>024-027-028-221300-
   Northwest Minnesota

CITY           SKY/WX    TMP DP  RH WIND       PRES   REMARKS
BEMIDJI        CLOUDY    62  60  94 NW14G24   29.95R
HALLOCK        PTCLDY    63  59  88 NW8       30.00R
ROSEAU         MOSUNNY   57  54  88 NW7       29.96R
WARROAD        PTSUNNY   57  54  88 NW10      29.94R
THIEF RVR FALL PTCLDY    63  59  88 NW12      29.99R
FOSSTON        MOSUNNY   61  59  94 NW12      30.00R
DETROIT LAKES  CLOUDY    63  63 100 NW20G28   30.01R FOG
MOORHEAD       CLEAR     64  64 100 NW9       30.02R
PARK RAPIDS    CLOUDY    64  62  93 NW15      29.96R
$$
MNZ006-009>011-018-025>026-221300-
   North Central Minnesota

CITY           SKY/WX    TMP DP  RH WIND       PRES   REMARKS
BAUDETTE       CLOUDY    63  59  87 NW13      29.92R
FLAG ISLAND    CLOUDY    64  55  72 N15       29.92R
INTL FALLS     CLOUDY    65  63  93 NW13      29.83R
6HR MIN TEMP:  65; 6HR MAX TEMP:  68; 6HR PCP:  0.58;

WASKISH        CLOUDY    64  63  94 NW14G21   29.92R
BIG FORK       CLOUDY    64  63  94 W5        29.86R
LONGVILLE      CLOUDY    64  63  94 W10G18    29.91R
GRAND RAPIDS   CLOUDY    66  63  88 NW18G24   29.86R
ORR            CLOUDY    64  63  94 NW12G18   29.77R
COOK           CLOUDY    66  64  94 NW8G17    29.79R
$$
MNZ012-019>021-037-221300-
   Northeast Minnesota

CITY           SKY/WX    TMP DP  RH WIND       PRES   REMARKS
DULUTH         CLOUDY    68  64  87 W16G24    29.79R
6HR MIN TEMP:  67; 6HR MAX TEMP:  79; 6HR PCP:  0.31;

ELY            LGT RAIN  64  64 100 W6        29.73R
HIBBING        CLOUDY    67  63  87 NW15G23   29.81R
DULUTH HARBOR  MOSUNNY   70  66  88 SW15      29.78R
TWO HARBORS    PTSUNNY   66  63  88 W12G20    29.74R
SILVER BAY     PTSUNNY   64  64 100 SW6       29.71R
GRAND MARAIS     N/A     55  54  96 NE5       29.69F
G MARAIS ARPRT DRIZZLE   61  57  88 S3        29.73R
$$
MNZ029>031-032-039>041-046>048-054>057-064-221300-
   West Central Minnesota

CITY           SKY/WX    TMP DP  RH WIND       PRES   REMARKS
FERGUS FALLS   CLOUDY    66  63  88 NW15G21   30.00R
WHEATON        PTCLDY    64  63  94 W7        30.03S
MORRIS         CLEAR     66  64  94 NW8       30.00R
ALEXANDRIA     MOCLDY    67  63  87 NW16      30.00R
ELBOW LAKE     CLOUDY    65  64  95 NW16      29.99S
WADENA         CLOUDY    64  63  94 W10G16    29.96R
GLENWOOD       CLOUDY    66  63  88 NW14      30.01R
APPLETON       MOCLDY    68  64  88 N7        29.98F
BENSON         CLOUDY    66  64  94 N9        30.01R
MADISON        PTCLDY    70  66  88 NW6       30.01S
WILLMAR        FAIR     N/A N/A N/A NW15      30.00R
$$
MNZ033>034-036-042>043-049>051-058-059-221300-
   Central Minnesota

CITY           SKY/WX    TMP DP  RH WIND       PRES   REMARKS
ST CLOUD       MOSUNNY   71  63  75 W12       29.93R
6HR MIN TEMP:  70; 6HR MAX TEMP:  74;

SAUK CENTRE    FAIR      66  63  90 W10       29.97R
PAYNESVILLE    HVY RAIN  65  62  91 SW10      29.98R
AITKIN         CLOUDY    70  64  83 W6        29.86R
PINE RIVER     CLOUDY    64  63  94 NW9G17    29.96R
BRAINERD       CLOUDY    67  63  87 NW15      29.92R
STAPLES        MOSUNNY   64  61  88 NW12      29.95R
LONG PRAIRIE   FAIR      64  61  88 W13G18    29.97R
LITTLE FALLS   SUNNY     66  61  82 NW13G20   29.93R
LITCHFIELD     MOSUNNY   70  66  88 NW15G25   29.96R
BUFFALO        MOSUNNY   70  63  77 W14G20    29.93R
MAPLE LAKE     MOSUNNY   71  65  83 W12G17    29.94R
$$
MNZ037-044-045-052-053-221300-
   East Central Minnesota

CITY           SKY/WX    TMP DP  RH WIND       PRES   REMARKS
PRINCETON      SUNNY     70  64  83 W12       29.91R
MORA           PTSUNNY   64  63  94 W10       29.88R
CAMBRIDGE      SUNNY     72  61  68 W7G16     29.87R
RUSH CITY      PTSUNNY   68  64  85 W7        29.88R
MOOSE LAKE     MOSUNNY   68  63  83 W7        29.82R
HINCKLEY       FAIR      68  64  88 W6        29.85R
CLOQUET        PTSUNNY   68  63  83 W12G20    29.81R
MCGREGOR       CLOUDY    68  64  88 NW9G22    29.85R
$$
MNZ071>073-080-081-089-090-097-098-221300-
   Southwest Minnesota

CITY           SKY/WX    TMP DP  RH WIND       PRES   REMARKS
MONTEVIDEO     PTCLDY    70  64  83 N13       30.00F
GRANITE FALLS  MOCLDY    68  64  88 NW10G20   30.01R
CANBY          MOCLDY    68  64  85 CALM      30.04R
MARSHALL       MOCLDY    68  63  83 NW9         N/A
REDWOOD FALLS  CLOUDY    69  65  86 W16G26    30.02R
OLIVIA         MOCLDY    70  64  83 NW13G26   29.98R
PIPESTONE      CLOUDY    68  63  83 NE10G16   29.99F
WINDOM         PTCLDY    70  64  83 NW10      30.03R
WORTHINGTON    PTCLDY    68  63  83 N12       30.03F
TRACY          MOCLDY    69  64  83 N12G17    30.01F
SLAYTON        MOCLDY    68  63  84 CALM      30.04F
$$
MNZ065>067-074>077-082>085-091>093-221300-
   South Central Minnesota

CITY           SKY/WX    TMP DP  RH WIND       PRES   REMARKS
MANKATO        MOSUNNY   73  63  68 NW18G24   29.95R
NEW ULM        MOCLDY    70  66  88 NW16G23   29.98R
ST JAMES       PTCLDY    72  64  78 NW14      30.00R
FAIRMONT       CLEAR     72  63  73 NW16G22   29.99R
GLENCOE        PTSUNNY   72  63  73 W12G18    29.93R
FARIBAULT      MOSUNNY   81  68  65 NW8       29.90R
OWATONNA       MOSUNNY   79  75  89 W8        29.90R FOG
WASECA         MOSUNNY   72  68  88 NW9       29.93R
ALBERT LEA     PTSUNNY   79  75  89 W5        29.90S FOG
$$
MNZ078>079-086>088-094>096-221300-
   Southeast Minnesota

CITY           SKY/WX    TMP DP  RH WIND       PRES   REMARKS
ROCHESTER      CLOUDY    77  73  87 SW9       29.91R FOG
6HR MIN TEMP:  76; 6HR MAX TEMP:  78; 6HR PCP: TRACE;

RED WING       CLOUDY    81  75  83 W7        29.86R
STANTON        PTSUNNY   80  73  78 NW8       29.87R
DODGE CENTER   PTSUNNY   75  73  94 SW8       29.90S FOG
WINONA         PTSUNNY   77  70  78 SW8G16    29.88R
AUSTIN         CLOUDY    77  75  94 S7        29.90S FOG
PRESTON        MOSUNNY   74  74 100 SW12      29.93R
$$
ABBREVIATIONS USED IN REMARKS
   TC - TEMPERATURES IN CELSIUS
  WCI - WIND CHILL INDEX
   HX - HEAT INDEX
  VSB - VISIBILITY
$$


USA.gov is the U.S. government's official web portal to all federal, state and local government web resources and services.